Temp_Advection
nan nan nan nan nan nan nan nan nan nan nan nan nan nan nan nan nan nan nan nan nan nan nan nan nan nan nan nan nan nan nan nan nan nan nan nan nan nan nan nan nan nan nan nan nan
nan 0 -0 -0 0 0 -0 -0 -0 -0 0 -0 -0 0 0 0 0 -1 -2 -1 -1 -0 0 0 0 0 0 -0 0 0 -0 -0 -0 -0 -0 -0 -0 -1 -0 -1 -0 -0 -0 -0 nan
nan -0 -0 0 0 -0 -0 -0 -0 -0 0 -0 0 0 0 1 0 -2 -2 -1 -1 0 0 0 0 0 0 0 0 0 -0 -0 -1 -0 0 0 -0 -0 0 -0 -1 -1 -1 -0 nan
nan -0 -0 -0 -0 0 0 -0 -0 -0 -0 0 0 0 1 0 -0 0 -1 0 1 1 0 0 0 0 0 0 0 0 -0 -0 -0 -0 0 0 -0 -0 -1 -1 -0 0 -0 -0 nan
nan 0 -0 -0 -0 -0 -0 -0 -0 -0 -0 -0 0 0 0 0 -1 -0 -0 0 1 1 -0 -0 -0 -0 -0 -0 0 -0 -0 -0 -0 0 0 0 0 -0 -2 -2 -1 0 -0 -0 nan
nan 0 -0 -0 -0 -0 -0 -0 -0 -0 0 0 0 0 0 -1 -2 -0 0 0 0 0 -1 -1 -0 -0 -1 -0 -0 -0 -0 -0 -0 0 0 0 -0 -0 -1 -0 -0 -0 -0 -0 nan
nan 0 -0 -0 -0 -0 -0 -0 0 0 0 0 0 0 0 -1 -0 0 -0 0 0 -1 -1 -1 -0 0 0 -0 -0 0 0 -0 -0 -0 -0 -0 1 -1 -3 -0 -0 -0 -1 -0 nan
nan 0 -0 0 0 -0 -0 -0 -0 0 0 0 0 0 -0 -1 -1 0 -0 -0 0 -0 -1 -0 0 0 -0 0 -0 0 0 -0 -0 -0 -0 0 0 -1 -2 0 -0 -0 -0 0 nan
nan 0 0 -0 -0 -0 0 0 0 0 0 0 0 0 -0 -0 -1 -0 -0 0 0 -0 -0 0 0 0 0 0 0 0 0 0 -0 -0 0 0 -0 -1 0 -0 -0 -0 -0 0 nan
nan 0 0 -0 -0 -0 0 0 0 0 0 0 -0 -0 -1 -0 -1 -0 -0 0 0 -0 -0 -0 0 0 0 0 -0 0 0 0 -0 -0 0 0 -0 -1 -1 -0 -0 0 0 0 nan
nan 0 0 -0 -0 0 0 0 -0 -0 -0 -0 -0 -0 -0 -0 -0 -0 0 0 -0 0 -1 -0 0 -0 -0 -0 -0 -0 0 0 -0 -0 0 0 -0 -1 -1 -0 0 0 0 0 nan
nan 0 -0 -0 -0 0 0 -0 -1 -0 -0 -0 -0 -0 -0 0 -0 -0 0 -0 -0 -0 -0 -0 -1 -1 -0 0 0 -0 0 0 -0 0 0 0 -0 0 -0 -0 0 0 0 0 nan
nan 1 0 -0 -0 0 0 0 0 0 0 -0 -0 -0 -0 -1 -0 -0 -0 -1 -0 -0 -1 -0 0 0 -0 -0 0 0 0 -0 0 -0 -0 0 -0 -0 0 0 0 0 0 0 nan
nan 1 0 -0 0 0 0 0 0 0 0 -0 -0 -0 -1 -0 -0 -0 -1 -0 -0 -0 -1 -0 0 1 0 -0 0 -0 -0 -0 0 -0 0 0 0 -0 -0 0 0 1 0 0 nan
nan 0 0 0 -0 -0 0 0 0 -0 -0 0 -0 -0 -0 -0 -0 0 -0 0 -0 -0 -0 -0 -0 0 0 -0 -0 -0 -0 0 0 0 -0 -0 0 -0 0 0 0 0 0 0 nan
nan 0 0 -0 -0 -0 0 -0 -0 -0 -0 -0 -0 -0 0 -0 -0 -0 0 0 -0 0 0 -0 0 -0 -0 0 -0 0 -0 -0 -0 0 -0 -0 0 0 -0 0 -0 -0 -0 0 nan
nan 0 0 -0 0 -0 0 -0 -0 -0 -0 -0 -0 -0 -0 -0 0 -0 -0 -0 0 -0 0 0 0 0 -0 -0 -0 0 -0 0 0 0 -0 -0 0 -1 -0 0 -0 -1 -1 -0 nan
nan 0 1 0 -0 -0 0 0 -0 -0 -0 -0 -0 -0 0 -0 -0 -0 -0 -0 -1 -0 -0 -0 -0 -0 0 -0 -0 0 0 -0 0 0 0 -0 -0 -0 0 -0 -1 -1 -0 -0 nan
nan 1 1 -0 0 0 0 -0 -0 -0 -0 -0 -0 -0 -0 0 -0 0 -0 -1 -1 -0 -0 -0 0 0 0 -0 -1 0 -0 -0 -0 0 0 -0 -0 -0 0 0 0 3 2 0 nan
nan 0 0 -0 0 -0 -0 -0 -1 0 -0 -1 -0 -0 -0 0 -0 0 0 -0 -0 0 -0 0 0 0 0 0 -0 -0 0 -0 -0 -0 0 0 -0 -0 0 0 -0 0 1 0 nan
nan 0 -0 0 -1 -1 -0 -1 -0 0 -0 -0 -0 -0 -0 -0 -0 -0 0 -0 -0 0 -0 -0 0 0 0 0 0 -0 -0 -0 -0 0 0 -0 -0 0 -0 0 0 -0 -0 -0 nan
nan -0 -0 0 -0 -0 -0 -0 -0 -0 0 0 0 -0 -0 -0 -0 -0 -0 -0 0 -0 0 0 -0 0 0 0 0 -0 0 -0 0 0 -0 0 -0 0 0 -0 -0 -0 -1 -1 nan
nan -0 -0 -0 -0 -0 -0 0 0 0 -0 0 0 0 -0 -0 0 -0 -0 -0 0 -0 -0 -0 -0 0 0 -0 -0 0 0 -0 -0 -0 -0 0 -0 0 -0 0 0 -0 -0 -0 nan
nan -0 -0 -0 -0 -0 -0 0 0 0 -0 -0 -0 0 0 -0 -0 0 0 -0 0 0 0 -1 -0 -0 0 0 -0 0 0 0 -0 -0 -0 -1 -0 0 0 -0 0 0 0 0 nan
nan -0 -0 0 -0 -0 -0 0 0 -0 -0 -0 0 -0 -0 -0 -0 0 0 0 0 0 0 0 -0 -0 -0 0 -0 -0 -0 0 -0 -0 -0 0 0 0 0 0 -0 -0 0 0 nan
nan -0 0 -0 -0 -0 -0 -0 -0 0 0 -0 -0 0 0 0 -0 -0 0 0 0 0 -0 -0 0 0 -0 0 0 -0 0 0 0 0 0 0 -0 0 0 0 0 0 0 0 nan
nan nan nan nan nan nan nan nan nan nan nan nan nan nan nan nan nan nan nan nan nan nan nan nan nan nan nan nan nan nan nan nan nan nan nan nan nan nan nan nan nan nan nan nan nan
Wind_Speed
12 13 14 16 17 19 20 20 21 22 22 19 19 19 20 19 18 19 22 27 27 8 19 19 21 15 10 5 5 4 3 2 4 5 5 5 8 6 17 10 20 5 7 10 15
13 12 13 14 15 15 16 18 19 21 21 22 22 21 18 19 21 26 28 25 25 21 15 18 25 21 7 5 6 5 4 8 6 4 4 10 8 20 9 20 9 12 9 13 18
11 11 11 13 14 14 16 17 17 19 19 18 19 21 18 18 17 28 27 27 27 28 19 15 18 25 12 8 8 6 6 5 7 13 12 7 15 11 6 7 9 22 20 21 22
12 11 11 11 12 12 15 16 16 16 17 18 19 18 18 16 7 3 9 20 24 29 25 18 14 17 8 7 7 3 11 9 7 11 6 5 12 10 14 19 21 19 18 22 24
12 10 11 11 11 10 11 14 15 15 15 16 17 15 16 15 22 9 5 3 23 27 31 23 17 17 8 9 6 4 4 9 16 20 18 17 17 12 22 29 27 24 23 21 24
12 11 12 12 12 13 12 12 14 15 14 17 16 16 18 16 26 28 10 5 17 28 35 29 18 18 13 8 13 7 15 19 17 24 15 8 16 6 19 14 24 25 27 24 20
12 13 13 15 15 15 15 14 14 14 15 16 16 15 19 30 8 17 31 24 6 27 34 33 11 17 9 3 10 13 3 7 10 12 8 6 13 12 35 24 18 18 26 15 13
16 15 14 14 16 17 17 15 14 14 13 16 15 16 14 9 28 16 9 16 14 26 33 32 22 14 7 6 6 6 2 4 4 2 4 6 17 11 22 14 15 15 9 3 1
16 17 19 17 15 17 17 15 15 14 13 12 12 14 9 10 24 27 13 6 8 21 23 24 28 9 11 5 4 3 4 6 7 5 3 4 8 8 3 3 8 7 1 6 7
16 18 19 17 17 15 18 17 12 13 11 9 10 3 19 14 20 19 24 9 8 20 14 16 16 5 4 5 7 6 4 3 5 3 2 5 13 17 16 5 8 4 5 8 11
18 19 18 17 20 19 17 15 9 5 19 13 13 10 6 13 7 11 24 19 8 21 12 16 9 12 13 13 4 6 4 7 4 4 2 7 8 15 14 11 7 8 8 10 14
17 19 19 9 12 11 24 27 23 6 6 29 11 16 24 6 7 14 25 15 9 9 15 8 16 14 7 7 4 3 3 5 6 1 3 7 10 12 7 7 4 13 12 10 15
15 19 16 11 11 13 29 31 16 9 2 9 28 11 12 20 12 22 30 15 5 13 20 11 4 15 13 6 10 3 5 4 5 7 4 6 7 6 2 2 8 12 11 11 12
16 19 12 9 7 14 28 23 21 19 4 7 11 10 14 8 6 21 30 17 5 17 20 6 5 13 16 11 6 9 6 3 3 4 3 5 6 6 5 4 6 12 13 13 13
13 15 12 8 9 9 16 23 20 16 1 11 9 5 20 10 8 23 33 24 9 9 9 7 14 11 15 17 9 4 5 6 2 3 3 1 2 7 2 5 6 9 14 13 13
15 14 13 11 7 9 6 24 21 3 5 9 11 10 11 15 7 20 19 12 10 8 3 3 9 10 7 4 11 6 5 2 3 2 2 6 7 6 4 6 4 6 16 16 16
16 16 16 10 12 9 17 18 3 4 3 7 7 10 13 7 10 10 16 15 9 12 14 1 4 3 8 6 3 4 7 2 1 1 6 1 2 8 4 5 9 14 21 19 18
18 18 19 14 17 20 21 2 6 3 8 6 7 12 7 9 8 12 13 11 12 1 13 7 5 8 6 6 6 7 8 5 6 4 4 2 6 5 3 9 10 25 28 22 19
18 22 14 14 22 23 16 3 4 5 7 11 11 8 4 10 2 10 17 11 13 11 10 8 5 2 5 5 11 6 8 4 5 1 1 3 7 8 4 6 4 23 29 24 20
16 5 3 5 27 28 4 4 7 6 12 15 7 5 9 15 8 5 8 9 11 11 7 7 5 0 2 7 3 7 8 2 2 3 4 4 5 5 5 2 3 8 23 23 19
3 2 5 11 30 17 3 6 4 18 14 7 6 6 7 8 5 4 8 3 10 9 4 6 4 2 6 6 8 2 4 4 4 3 4 1 6 5 5 4 8 8 21 22 19
3 1 8 24 5 3 6 5 7 11 3 2 4 6 8 8 5 6 8 6 15 9 8 4 6 6 3 1 5 4 7 6 5 4 1 3 6 2 5 4 10 9 15 17 16
3 4 14 18 3 2 2 2 3 3 1 3 3 4 9 6 6 4 5 3 11 7 9 8 2 5 2 1 2 4 4 4 5 3 6 6 5 3 6 6 9 12 13 15 16
4 2 5 14 7 2 3 4 3 2 3 4 5 7 10 4 2 6 6 1 4 4 7 8 3 6 9 4 6 5 5 5 6 4 5 6 5 3 3 5 5 5 4 10 17
5 4 5 4 5 5 4 6 3 5 8 3 3 14 7 5 4 5 3 4 4 8 4 4 4 3 3 4 4 6 9 11 9 9 7 5 8 3 2 4 4 6 2 6 13
4 4 4 1 0 5 4 5 4 3 4 1 7 4 4 4 4 8 8 4 5 3 3 3 2 3 2 3 3 2 4 8 4 4 2 5 4 2 3 4 3 3 3 1 8
7 6 3 0 2 3 3 5 5 5 4 5 7 6 9 1 2 11 11 12 8 7 3 5 5 3 3 2 2 4 8 8 5 4 7 7 6 4 3 6 5 5 3 3 7
Wind_Direction
284 277 269 264 260 257 253 250 249 247 245 246 254 253 255 259 255 252 247 243 237 225 224 225 220 228 222 217 198 181 77 211 237 187 249 300 350 325 325 285 321 267 284 316 319
284 278 273 267 262 263 259 250 246 246 250 248 247 250 250 252 257 256 256 246 238 203 211 205 213 217 209 207 190 159 155 221 215 203 244 305 310 314 320 313 306 321 317 329 331
298 292 279 269 263 254 250 252 252 249 247 243 239 240 238 244 264 272 267 250 234 204 207 200 208 214 205 201 190 182 202 217 258 260 278 282 302 310 278 297 283 302 310 312 314
292 289 291 280 270 264 254 249 251 252 243 240 235 235 229 222 226 57 245 220 226 207 209 194 184 190 183 186 195 175 240 234 278 286 282 278 300 288 261 272 297 298 292 301 308
295 290 288 279 268 260 258 256 254 244 242 241 240 227 213 214 226 237 5 221 207 205 208 192 184 189 182 179 166 200 259 262 269 280 281 285 270 259 273 284 288 291 290 286 300
300 286 286 281 270 263 261 260 251 237 233 240 236 219 216 240 247 231 252 20 210 202 205 196 197 189 185 190 186 205 226 261 279 279 279 257 273 275 271 278 287 298 296 283 289
292 294 286 272 269 266 258 254 250 241 234 230 231 222 222 232 249 231 239 242 244 209 204 200 176 188 175 149 212 223 295 302 271 274 260 263 281 237 269 271 287 304 308 262 272
282 286 289 280 277 268 257 253 247 243 239 228 224 227 239 264 240 238 226 234 249 213 206 203 194 198 207 180 100 141 135 271 281 302 283 162 274 281 281 274 299 317 321 198 187
281 286 288 279 287 265 251 246 240 235 231 230 220 222 267 257 247 239 222 196 231 202 205 201 204 205 198 137 155 166 204 212 304 210 232 182 287 282 49 25 337 323 344 109 101
282 293 286 269 274 264 231 234 228 220 211 212 209 203 243 227 241 233 212 190 178 185 204 207 193 180 171 169 192 169 204 218 233 257 211 258 264 276 284 274 305 268 167 109 92
283 294 296 271 258 262 220 185 157 204 199 194 192 207 258 234 254 217 199 193 176 169 195 190 191 191 185 192 166 153 185 215 255 258 268 279 275 278 281 277 258 196 150 112 100
291 293 296 278 253 247 203 191 190 176 186 217 217 234 237 155 195 202 189 173 177 179 203 188 206 197 144 157 173 145 188 251 283 215 189 306 285 274 267 268 238 176 154 132 111
293 292 291 288 261 222 208 206 194 192 337 215 213 243 254 230 234 187 180 183 132 173 203 198 168 186 167 158 175 193 192 251 239 334 317 327 290 311 338 133 133 155 152 141 124
294 305 295 292 236 229 206 211 210 218 245 184 195 249 202 195 248 192 182 172 168 192 195 226 155 184 173 179 158 222 197 210 283 21 260 37 286 295 266 186 147 152 160 154 141
289 299 301 233 262 221 227 202 192 189 201 153 177 201 176 195 154 176 181 206 164 171 171 179 173 182 175 196 167 217 149 193 222 210 355 286 297 270 154 205 195 180 169 169 150
289 295 285 265 237 279 192 155 170 219 229 181 162 176 147 204 201 155 182 198 179 149 64 202 158 162 161 169 177 154 81 57 54 83 292 228 186 275 207 211 158 175 177 175 157
290 288 268 254 206 186 146 140 129 234 155 155 166 158 166 162 179 158 181 200 165 157 184 193 158 159 147 133 69 107 119 284 277 282 229 78 168 253 227 231 184 180 184 177 164
294 284 274 254 217 171 157 100 226 140 199 144 132 143 167 156 195 166 186 200 233 192 156 159 172 179 173 178 150 184 173 163 199 203 260 114 238 251 228 285 240 193 176 171 170
298 294 262 220 195 166 154 200 243 184 185 148 127 145 191 181 245 171 206 204 196 189 163 162 184 151 156 121 140 198 202 190 102 13 49 237 289 307 360 19 134 162 169 173 173
304 268 264 188 187 154 158 254 230 125 117 145 141 182 184 168 181 165 169 184 165 202 155 190 106 132 138 102 82 175 160 111 9 229 249 287 279 246 337 342 132 155 168 172 171
291 239 335 172 174 174 227 228 260 142 141 162 119 159 180 155 167 125 163 218 190 178 128 136 107 181 137 179 162 161 163 58 123 138 176 303 274 218 272 256 196 184 178 175 176
242 65 151 151 191 187 229 254 171 145 138 131 97 125 148 136 144 154 185 228 177 145 144 179 123 147 158 260 179 163 168 154 147 214 133 145 274 337 285 274 160 159 183 188 195
195 116 172 178 247 196 278 151 108 163 19 144 134 154 140 152 123 140 256 292 158 136 164 174 123 106 90 79 335 192 177 127 116 99 187 153 261 355 46 90 146 158 193 202 206
196 130 169 219 268 260 161 172 210 255 273 211 163 145 146 138 20 137 166 199 143 118 145 115 143 152 189 182 141 176 179 169 144 153 175 219 272 352 50 132 158 155 196 227 223
211 211 199 201 238 226 187 171 210 179 220 172 123 157 162 130 94 122 128 107 60 136 88 136 135 123 45 133 136 179 180 181 194 200 188 216 204 216 160 221 254 299 286 219 210
232 177 197 260 255 157 191 204 198 127 29 86 115 121 97 130 161 172 142 140 174 162 148 103 158 114 76 65 110 188 187 182 193 163 209 136 227 177 100 108 77 26 22 223 214
223 219 201 172 108 176 213 169 173 139 21 38 126 102 70 223 134 110 101 90 126 135 124 145 134 120 176 124 119 294 215 184 179 181 153 193 201 152 88 114 78 54 25 308 257
Height
1477 1477 1477 1477 1477 1479 1479 1481 1482 1484 1485 1487 1489 1492 1494 1496 1495 1496 1495 1498 1502 1509 1510 1514 1517 1520 1522 1521 1522 1524 1532 1536 1529 1528 1519 1513 1513 1509 1509 1506 1503 1500 1498 1497 1495
1475 1475 1475 1474 1474 1476 1477 1477 1478 1480 1481 1484 1485 1488 1491 1493 1492 1489 1493 1495 1498 1505 1507 1509 1513 1517 1519 1519 1520 1521 1530 1526 1517 1515 1514 1512 1513 1510 1508 1504 1500 1497 1497 1495 1495
1473 1473 1472 1471 1471 1472 1473 1474 1474 1476 1478 1481 1482 1485 1489 1490 1490 1481 1486 1490 1494 1500 1504 1506 1509 1514 1517 1517 1517 1518 1523 1516 1513 1512 1512 1511 1509 1509 1508 1503 1499 1496 1495 1494 1493
1471 1470 1469 1469 1469 1469 1470 1471 1472 1473 1475 1477 1480 1483 1486 1488 1490 1482 1479 1482 1489 1496 1500 1503 1505 1510 1512 1514 1513 1516 1513 1513 1511 1510 1511 1509 1508 1507 1504 1499 1496 1495 1494 1492 1491
1468 1468 1467 1467 1467 1467 1467 1468 1469 1470 1472 1474 1477 1480 1483 1483 1477 1481 1480 1479 1483 1490 1494 1498 1502 1505 1508 1508 1511 1512 1511 1509 1508 1509 1509 1508 1504 1504 1496 1496 1494 1493 1491 1490 1489
1466 1465 1464 1464 1464 1464 1465 1465 1466 1468 1469 1472 1475 1478 1481 1479 1473 1479 1479 1479 1481 1485 1489 1495 1497 1501 1504 1505 1507 1507 1508 1507 1508 1506 1506 1504 1498 1500 1490 1493 1490 1489 1487 1486 1486
1464 1462 1461 1460 1461 1462 1462 1464 1464 1465 1467 1469 1473 1475 1473 1465 1471 1472 1475 1478 1480 1481 1485 1491 1496 1499 1499 1503 1503 1505 1508 1507 1505 1503 1501 1500 1494 1491 1484 1488 1487 1485 1481 1481 1483
1460 1459 1458 1457 1457 1458 1459 1460 1462 1463 1465 1466 1470 1471 1464 1464 1471 1471 1473 1475 1478 1479 1484 1490 1495 1496 1499 1499 1501 1507 1510 1515 1503 1501 1498 1500 1491 1483 1481 1483 1483 1484 1481 1479 1479
1456 1455 1454 1453 1452 1453 1454 1456 1459 1461 1463 1466 1468 1469 1465 1463 1464 1466 1473 1473 1476 1478 1482 1489 1492 1494 1496 1498 1504 1506 1512 1516 1509 1498 1499 1500 1497 1479 1481 1480 1482 1483 1483 1480 1478
1452 1451 1449 1448 1448 1448 1449 1453 1456 1459 1462 1464 1466 1471 1462 1458 1460 1462 1469 1473 1475 1477 1485 1484 1489 1491 1493 1500 1506 1506 1509 1509 1511 1499 1498 1498 1495 1481 1480 1481 1480 1482 1483 1481 1478
1448 1446 1444 1442 1442 1442 1444 1448 1455 1459 1456 1453 1455 1455 1454 1456 1458 1460 1465 1471 1473 1475 1476 1478 1482 1481 1488 1489 1495 1500 1505 1508 1502 1498 1499 1497 1495 1482 1477 1478 1477 1479 1482 1482 1480
1444 1442 1439 1437 1437 1437 1437 1440 1443 1447 1452 1451 1451 1453 1454 1455 1457 1458 1463 1468 1468 1470 1476 1477 1476 1478 1486 1491 1494 1498 1503 1506 1501 1497 1498 1494 1490 1479 1474 1473 1473 1477 1481 1483 1480
1440 1438 1435 1433 1433 1432 1431 1435 1441 1445 1448 1445 1446 1448 1450 1456 1455 1454 1459 1463 1466 1471 1469 1469 1471 1478 1485 1492 1496 1499 1504 1503 1505 1499 1494 1496 1489 1481 1473 1473 1473 1478 1481 1483 1483
1436 1434 1431 1431 1432 1430 1429 1432 1439 1444 1448 1442 1444 1443 1446 1451 1452 1450 1456 1461 1464 1467 1470 1472 1473 1475 1480 1489 1492 1504 1498 1498 1501 1507 1513 1499 1510 1487 1475 1474 1474 1477 1480 1482 1483
1432 1431 1429 1428 1429 1428 1428 1429 1436 1442 1440 1434 1438 1437 1437 1448 1444 1449 1452 1458 1460 1460 1467 1469 1472 1476 1478 1482 1489 1495 1493 1498 1500 1507 1508 1504 1513 1485 1476 1476 1476 1476 1479 1483 1484
1427 1428 1426 1425 1426 1425 1423 1428 1436 1438 1426 1431 1429 1434 1440 1444 1442 1447 1453 1457 1458 1462 1465 1466 1467 1470 1477 1481 1485 1490 1497 1501 1507 1511 1518 1501 1503 1489 1477 1472 1472 1474 1477 1482 1483
1422 1422 1421 1421 1422 1423 1425 1428 1434 1427 1429 1427 1427 1429 1433 1438 1442 1442 1450 1455 1451 1464 1470 1470 1470 1470 1471 1482 1486 1491 1496 1515 1515 1519 1514 1499 1506 1482 1464 1464 1463 1468 1474 1480 1483
1417 1416 1414 1415 1417 1419 1426 1430 1422 1415 1419 1416 1421 1427 1431 1432 1437 1442 1446 1448 1449 1446 1458 1470 1480 1471 1466 1472 1485 1492 1495 1509 1512 1516 1507 1503 1499 1472 1460 1460 1460 1463 1470 1478 1481
1411 1408 1406 1408 1414 1417 1424 1423 1412 1402 1407 1410 1421 1425 1431 1429 1433 1437 1444 1444 1443 1443 1451 1467 1469 1464 1462 1466 1476 1492 1491 1488 1501 1506 1510 1495 1480 1462 1459 1459 1459 1462 1468 1475 1478
1406 1404 1404 1405 1410 1414 1421 1414 1400 1394 1401 1409 1413 1419 1423 1427 1429 1437 1439 1433 1436 1440 1439 1454 1472 1464 1465 1467 1474 1477 1480 1495 1502 1501 1504 1496 1490 1478 1460 1459 1463 1465 1468 1473 1477
1404 1403 1403 1402 1410 1414 1411 1409 1394 1395 1397 1402 1407 1415 1416 1423 1426 1433 1437 1435 1431 1438 1437 1445 1456 1470 1467 1470 1476 1479 1483 1488 1490 1500 1501 1505 1487 1467 1462 1460 1463 1466 1469 1472 1475
1402 1403 1404 1405 1408 1405 1402 1391 1392 1394 1395 1396 1399 1406 1411 1421 1423 1428 1430 1427 1425 1429 1439 1440 1456 1470 1467 1464 1466 1467 1474 1477 1491 1497 1505 1505 1488 1461 1461 1458 1461 1467 1470 1473 1475
1400 1402 1405 1405 1398 1396 1393 1392 1392 1394 1394 1397 1400 1401 1406 1414 1421 1423 1426 1423 1423 1426 1433 1439 1454 1473 1471 1469 1467 1466 1469 1473 1481 1488 1499 1499 1486 1461 1460 1460 1463 1467 1470 1471 1474
1399 1400 1403 1403 1398 1395 1393 1394 1393 1394 1396 1395 1396 1399 1403 1409 1411 1422 1428 1423 1423 1425 1427 1432 1447 1453 1461 1454 1461 1468 1467 1470 1471 1488 1490 1487 1471 1462 1464 1464 1465 1467 1468 1470 1470
1395 1391 1392 1396 1393 1392 1390 1391 1392 1393 1394 1391 1395 1397 1400 1410 1413 1420 1422 1423 1426 1428 1432 1435 1443 1446 1451 1450 1451 1455 1458 1466 1469 1465 1473 1466 1473 1463 1462 1464 1465 1465 1465 1465 1466
1390 1389 1389 1388 1387 1388 1390 1390 1390 1389 1389 1389 1394 1398 1397 1402 1403 1413 1415 1419 1422 1429 1431 1434 1446 1442 1451 1451 1450 1452 1453 1461 1462 1464 1462 1466 1466 1461 1462 1463 1464 1463 1463 1463 1465
1386 1385 1386 1387 1387 1388 1386 1386 1387 1388 1391 1389 1391 1397 1402 1403 1403 1405 1409 1412 1416 1423 1430 1435 1441 1447 1454 1453 1452 1457 1452 1456 1456 1455 1457 1465 1459 1458 1462 1463 1464 1464 1463 1463 1464